Location: Pinawa
(50.1500°N, 95.8830°W)
Time: 13:01:00
(UTC-05:00)

Amateur Radio Satellites - All Passes

Search period start: 21 August 2014 12:30
Search period end: 22 August 2014 12:30
Location: Pinawa, 50.1500°N, 95.8830°W

Satellite Date Start Highest point End Downlink Frequencies (MHz)
Time Altitude Azimuth
KITSAT 1 21 Aug 12:39:24 12:45:49 27° 254° (WSW) 12:52:13 435.175 FM
Oscar 19 21 Aug 12:41:38 12:45:41 24° 59° (ENE) 12:49:45 437.125 CW, 437.150 USB
ITAMSAT 1 21 Aug 12:51:48 12:54:47 16° 53° (NE) 12:57:46 435.822 SSB
AO-Echo 21 Aug 12:53:19 12:56:20 16° 55° (NE) 12:59:18 ?
UKube-1 21 Aug 13:03:22 13:04:10 10° 308° (NW) 13:04:57 145.840 MHz, 145.915 MHz
Uribyol 2 21 Aug 13:03:39 13:07:17 20° 56° (NE) 13:10:56 436.500 FM
JAS-1B 21 Aug 13:10:20 13:18:48 35° 55° (NE) 13:26:39 435.800 - 435.900 CW/SSB
Oscar 16 21 Aug 13:13:39 13:18:28 42° 66° (ENE) 13:23:20 437.025 USB, Beacon 2401.1428
FUNcube-1 21 Aug 13:15:27 13:18:51 22° 298° (WNW) 13:22:18 145.950 - 145.970 MHz USB
AO-27 21 Aug 13:16:39 13:20:43 24° 58° (ENE) 13:24:46 436.795 MHz FM
Oscar 11 21 Aug 13:20:30 13:21:23 11° 307° (NW) 13:22:16 145.825 FM, Beacon 2401.500 USB
UOSAT-12 21 Aug 13:27:55 13:30:28 14° 1° (N) 13:33:01 437.025 FM, 437.400 FM
RS-15 21 Aug 13:38:32 13:48:48 43° 341° (NNW) 13:59:09 29.354 - 29.394 USB, Beacon 29.352 USB
TMSAT-1 21 Aug 13:45:38 13:48:45 16° 53° (NE) 13:51:53 436.925 FM
SO-50 21 Aug 13:51:41 13:55:55 31° 34° (NE) 14:00:12 436.795 FM
Oscar 19 21 Aug 14:19:32 14:24:38 62° 258° (WSW) 14:29:48 437.125 CW, 437.150 USB
Gurwin Techsat 1B 21 Aug 14:24:48 14:29:40 38° 64° (ENE) 14:34:34 435.225 FM
AO-7 21 Aug 14:27:00 14:33:19 25° 43° (NE) 14:39:38 29.400 - 29.500 MHz
ITAMSAT 1 21 Aug 14:28:20 14:33:31 80° 73° (ENE) 14:38:43 435.822 SSB
AO-Echo 21 Aug 14:29:17 14:34:27 86° 74° (ENE) 14:39:29 ?
Uribyol 2 21 Aug 14:41:03 14:46:13 78° 256° (WSW) 14:51:25 436.500 FM
Oscar 16 21 Aug 14:53:20 14:57:56 32° 265° (W) 15:02:35 437.025 USB, Beacon 2401.1428
AO-27 21 Aug 14:54:42 14:59:50 63° 258° (WSW) 15:05:01 436.795 MHz FM
JAS-1B 21 Aug 14:58:36 15:08:34 82° 255° (WSW) 15:17:51 435.800 - 435.900 CW/SSB
UOSAT-12 21 Aug 15:08:32 15:12:17 23° 26° (NNE) 15:16:01 437.025 FM, 437.400 FM
Uosat F 21 Aug 15:12:34 15:16:03 19° 56° (NE) 15:19:33 435.120 FM
ISS 21 Aug 15:15:22 15:18:07 24° 144° (SE) 15:20:52 145.800 FM
TMSAT-1 21 Aug 15:22:37 15:27:54 81° 73° (ENE) 15:33:14 436.925 FM
MaSat-1 21 Aug 15:31:12 15:34:53 22° 104° (ESE) 15:38:45 437.345 MHz
SO-50 21 Aug 15:32:06 15:36:49 62° 234° (SW) 15:41:35 436.795 FM
RS-15 21 Aug 15:54:11 16:04:23 41° 15° (NNE) 16:14:45 29.354 - 29.394 USB, Beacon 29.352 USB
Gurwin Techsat 1B 21 Aug 16:04:46 16:09:40 37° 264° (W) 16:14:36 435.225 FM
ITAMSAT 1 21 Aug 16:10:22 16:13:39 17° 272° (W) 16:16:57 435.822 SSB
AO-Echo 21 Aug 16:10:54 16:13:51 15° 272° (W) 16:16:47 ?
AO-7 21 Aug 16:16:37 16:24:57 77° 66° (ENE) 16:33:17 29.400 - 29.500 MHz
JAS-2 21 Aug 16:17:29 16:19:55 13° 49° (NE) 16:22:16 435.800 - 435.900 CW/SSB, 435.910 FM
Uribyol 2 21 Aug 16:24:31 16:26:34 12° 275° (W) 16:28:38 436.500 FM
Hamsat 21 Aug 16:39:35 16:40:20 10° 54° (NE) 16:41:06 145.90 MHz
UOSAT-12 21 Aug 16:48:25 16:53:12 76° 48° (NE) 16:57:54 437.025 FM, 437.400 FM
Uosat F 21 Aug 16:49:17 16:54:18 78° 256° (WSW) 16:59:21 435.120 FM
ISS 21 Aug 16:51:14 16:54:34 86° 163° (SSE) 16:57:54 145.800 FM
JAS-1B 21 Aug 16:52:34 17:00:10 25° 275° (W) 17:07:29 435.800 - 435.900 CW/SSB
TMSAT-1 21 Aug 17:05:05 17:08:29 17° 272° (W) 17:11:55 436.925 FM
MaSat-1 21 Aug 17:06:36 17:11:30 69° 305° (NW) 17:16:43 437.345 MHz
SO-50 21 Aug 17:15:56 17:16:29 10° 253° (WSW) 17:17:03 436.795 FM
OPAL 21 Aug 17:30:11 17:35:05 40° 100° (E) 17:39:57 ?
JAS-2 21 Aug 17:57:40 18:04:02 56° 69° (ENE) 18:09:40 435.800 - 435.900 CW/SSB, 435.910 FM
RS-15 21 Aug 18:07:38 18:18:41 76° 45° (NE) 18:30:05 29.354 - 29.394 USB, Beacon 29.352 USB
Hamsat 21 Aug 18:11:13 18:15:28 67° 73° (ENE) 18:19:47 145.90 MHz
AO-7 21 Aug 18:11:29 18:18:32 30° 267° (W) 18:25:36 29.400 - 29.500 MHz
SO-67 21 Aug 18:11:58 18:12:35 10° 59° (ENE) 18:13:12 435.3500 MHz FM
ISS 21 Aug 18:28:06 18:31:25 66° 3° (N) 18:34:45 145.800 FM
UOSAT-12 21 Aug 18:29:29 18:32:50 19° 247° (WSW) 18:36:09 437.025 FM, 437.400 FM
Uosat F 21 Aug 18:32:09 18:33:57 12° 275° (W) 18:35:45 435.120 FM
Sapphire 21 Aug 18:33:05 18:34:05 11° 101° (E) 18:35:04 437.095 MHz 1200 baud AX-25 AFSK
MaSat-1 21 Aug 18:46:00 18:49:36 19° 326° (NNW) 18:53:18 437.345 MHz
STRAND 1 21 Aug 18:58:33 19:01:26 15° 87° (E) 19:04:18 ?
PCSat 21 Aug 19:00:20 19:04:11 20° 107° (ESE) 19:08:04 145.825 MHz
OPAL 21 Aug 19:09:11 19:13:56 37° 299° (WNW) 19:18:40 ?
HO-68 21 Aug 19:24:15 19:29:24 22° 47° (NE) 19:34:32 435.675 MHz FM
SO-67 21 Aug 19:41:36 19:45:05 81° 257° (WSW) 19:48:35 435.3500 MHz FM
JAS-2 21 Aug 19:43:44 19:49:23 30° 266° (W) 19:54:31 435.800 - 435.900 CW/SSB, 435.910 FM
Hamsat 21 Aug 19:49:23 19:51:55 15° 272° (W) 19:54:29 145.90 MHz
ISS 21 Aug 20:04:53 20:08:12 63° 203° (SSW) 20:11:30 145.800 FM
Sapphire 21 Aug 20:11:05 20:16:25 62° 120° (ESE) 20:21:46 437.095 MHz 1200 baud AX-25 AFSK
RS-15 21 Aug 20:20:27 20:30:20 40° 250° (WSW) 20:40:33 29.354 - 29.394 USB, Beacon 29.352 USB
STRAND 1 21 Aug 20:36:12 20:41:20 87° 286° (WNW) 20:46:26 ?
PCSat 21 Aug 20:41:35 20:47:00 80° 307° (NW) 20:52:28 145.825 MHz
UKube-1 21 Aug 20:49:06 20:52:43 26° 63° (ENE) 20:56:20 145.840 MHz, 145.915 MHz
Oscar 11 21 Aug 21:06:04 21:09:28 23° 62° (ENE) 21:12:54 145.825 FM, Beacon 2401.500 USB
FUNcube-1 21 Aug 21:07:26 21:08:01 10° 54° (NE) 21:08:35 145.950 - 145.970 MHz USB
HO-68 21 Aug 21:08:58 21:16:07 78° 69° (ENE) 21:23:17 435.675 MHz FM
Oscar 10/S400 21 Aug 21:40:09 22:01:33 45° 161° (SSE) 01:49:34 145.825 - 145.975 CW/USB, Beacon 145.810 USB
ISS 21 Aug 21:42:24 21:44:27 15° 221° (SW) 21:46:30 145.800 FM
Sapphire 21 Aug 21:55:20 22:00:12 33° 322° (NW) 22:05:06 437.095 MHz 1200 baud AX-25 AFSK
STRAND 1 21 Aug 22:16:43 22:19:50 17° 306° (NW) 22:22:56 ?
UKube-1 21 Aug 22:24:39 22:28:46 41° 261° (W) 22:32:54 145.840 MHz, 145.915 MHz
PCSat 21 Aug 22:26:58 22:31:16 23° 330° (NNW) 22:35:37 145.825 MHz
FUNcube-1 21 Aug 22:39:29 22:43:37 70° 73° (ENE) 22:47:49 145.950 - 145.970 MHz USB
Oscar 11 21 Aug 22:41:14 22:45:24 47° 261° (W) 22:49:38 145.825 FM, Beacon 2401.500 USB
HO-68 21 Aug 22:58:54 23:04:34 25° 269° (W) 23:10:17 435.675 MHz FM
Sapphire 21 Aug 23:42:20 23:45:21 15° 347° (NNW) 23:48:23 437.095 MHz 1200 baud AX-25 AFSK
MaSat-1 21 Aug 23:43:23 23:47:29 24° 38° (NE) 23:51:19 437.345 MHz
PCSat 22 Aug 00:14:09 00:16:45 13° 356° (N) 00:19:21 145.825 MHz
FUNcube-1 22 Aug 00:18:26 00:20:34 14° 272° (W) 00:22:42 145.950 - 145.970 MHz USB
KITSAT 1 22 Aug 01:17:25 01:24:10 31° 108° (ESE) 01:30:57 435.175 FM
MaSat-1 22 Aug 01:20:13 01:25:15 78° 241° (WSW) 01:29:43 437.345 MHz
Sapphire 22 Aug 01:28:06 01:31:08 15° 13° (NNE) 01:34:09 437.095 MHz 1200 baud AX-25 AFSK
PCSat 22 Aug 01:58:46 02:02:26 18° 22° (NNE) 02:06:06 145.825 MHz
Saudisat 1A 22 Aug 02:06:25 02:10:43 54° 124° (SE) 02:15:03 436.775 MHz
Oscar 19 22 Aug 02:26:33 02:31:16 34° 95° (E) 02:35:57 437.125 CW, 437.150 USB
AO-Echo 22 Aug 02:32:55 02:36:12 18° 90° (E) 02:39:27 ?
ITAMSAT 1 22 Aug 02:37:19 02:41:06 20° 90° (E) 02:44:52 435.822 SSB
JAS-1B 22 Aug 02:41:55 02:47:56 25° 85° (E) 02:53:12 435.800 - 435.900 CW/SSB
Uribyol 2 22 Aug 02:49:28 02:53:49 27° 93° (E) 02:58:09 436.500 FM
Oscar 16 22 Aug 02:59:27 03:04:39 64° 102° (ESE) 03:09:48 437.025 USB, Beacon 2401.1428
MaSat-1 22 Aug 02:59:35 03:01:21 12° 262° (W) 03:03:03 437.345 MHz
AO-27 22 Aug 03:03:10 03:07:50 33° 95° (E) 03:12:28 436.795 MHz FM
KITSAT 1 22 Aug 03:10:45 03:18:52 79° 310° (NW) 03:27:02 435.175 FM
Sapphire 22 Aug 03:11:23 03:16:17 33° 38° (NE) 03:21:09 437.095 MHz 1200 baud AX-25 AFSK
OPAL 22 Aug 03:12:42 03:16:27 22° 54° (NE) 03:20:15 ?
TMSAT-1 22 Aug 03:34:21 03:38:30 23° 91° (E) 03:42:38 436.925 FM
PCSat 22 Aug 03:41:52 03:47:10 50° 46° (NE) 03:52:26 145.825 MHz
Saudisat 1A 22 Aug 03:46:35 03:50:33 31° 325° (NW) 03:54:31 436.775 MHz
Oscar 19 22 Aug 04:05:50 04:10:42 41° 294° (WNW) 04:15:32 437.125 CW, 437.150 USB
AO-Echo 22 Aug 04:10:45 04:15:29 63° 289° (WNW) 04:20:07 ?
AO-7 22 Aug 04:14:24 04:19:41 18° 85° (E) 04:24:56 29.400 - 29.500 MHz
Gurwin Techsat 1B 22 Aug 04:15:35 04:20:53 63° 102° (ESE) 04:26:08 435.225 FM
ITAMSAT 1 22 Aug 04:15:57 04:21:06 67° 289° (WNW) 04:26:14 435.822 SSB
Uribyol 2 22 Aug 04:28:34 04:33:35 51° 292° (WNW) 04:38:35 436.500 FM
JAS-1B 22 Aug 04:31:43 04:39:38 76° 290° (WNW) 04:46:10 435.800 - 435.900 CW/SSB
Oscar 16 22 Aug 04:39:32 04:43:36 24° 301° (WNW) 04:47:39 437.025 USB, Beacon 2401.1428
AO-27 22 Aug 04:42:36 04:47:28 42° 295° (WNW) 04:52:18 436.795 MHz FM
OPAL 22 Aug 04:49:50 04:54:50 72° 254° (WSW) 04:59:58 ?
Uosat F 22 Aug 04:52:53 04:56:51 23° 92° (E) 05:00:47 435.120 FM
Sapphire 22 Aug 04:54:42 05:00:05 62° 240° (WSW) 05:05:25 437.095 MHz 1200 baud AX-25 AFSK
KITSAT 1 22 Aug 05:08:20 05:15:32 34° 336° (NNW) 05:22:45 435.175 FM
TMSAT-1 22 Aug 05:13:37 05:18:51 61° 290° (WNW) 05:24:04 436.925 FM
PCSat 22 Aug 05:25:34 05:30:28 35° 246° (WSW) 05:35:20 145.825 MHz
Saudisat 1A 22 Aug 05:29:06 05:31:28 14° 348° (NNW) 05:33:49 436.775 MHz
AO-Echo 22 Aug 05:51:57 05:53:20 11° 309° (NW) 05:54:42 ?
SO-50 22 Aug 05:53:42 05:55:59 14° 110° (ESE) 05:58:18 436.795 FM
Gurwin Techsat 1B 22 Aug 05:56:15 06:00:28 25° 301° (WNW) 06:04:40 435.225 FM
ITAMSAT 1 22 Aug 05:57:17 05:59:42 13° 309° (NW) 06:02:07 435.822 SSB
AO-7 22 Aug 06:05:37 06:13:58 74° 107° (ESE) 06:22:14 29.400 - 29.500 MHz
Uribyol 2 22 Aug 06:11:02 06:11:57 10° 312° (NW) 06:12:51 436.500 FM
STRAND 1 22 Aug 06:18:24 06:23:00 36° 64° (ENE) 06:27:38 ?
JAS-1B 22 Aug 06:23:12 06:28:49 22° 316° (NW) 06:33:50 435.800 - 435.900 CW/SSB
Uosat F 22 Aug 06:31:05 06:36:00 56° 291° (WNW) 06:40:52 435.120 FM
OPAL 22 Aug 06:33:20 06:34:40 11° 273° (W) 06:36:01 ?
Sapphire 22 Aug 06:41:20 06:42:25 11° 259° (W) 06:43:30 437.095 MHz 1200 baud AX-25 AFSK
JAS-2 22 Aug 06:47:00 06:51:24 27° 93° (E) 06:55:49 435.800 - 435.900 CW/SSB, 435.910 FM
TMSAT-1 22 Aug 06:55:36 06:57:47 13° 310° (NW) 06:59:58 436.925 FM
KITSAT 1 22 Aug 07:07:01 07:13:36 26° 5° (N) 07:20:09 435.175 FM
Saudisat 1A 22 Aug 07:10:23 07:12:50 14° 13° (NNE) 07:15:17 436.775 MHz
Hamsat 22 Aug 07:28:10 07:32:34 74° 102° (ESE) 07:36:55 145.90 MHz
SO-50 22 Aug 07:31:19 07:35:49 86° 129° (SE) 07:40:28 436.795 FM
STRAND 1 22 Aug 07:57:26 08:02:11 38° 263° (W) 08:06:57 ?
AO-7 22 Aug 07:58:58 08:06:11 35° 309° (NW) 08:13:23 29.400 - 29.500 MHz
Uosat F 22 Aug 08:12:28 08:13:46 11° 311° (NW) 08:15:04 435.120 FM
JAS-2 22 Aug 08:31:51 08:36:50 46° 293° (WNW) 08:41:47 435.800 - 435.900 CW/SSB, 435.910 FM
SO-67 22 Aug 08:33:53 08:37:21 63° 101° (E) 08:40:47 435.3500 MHz FM
HO-68 22 Aug 08:36:24 08:36:43 10° 80° (E) 08:37:02 435.675 MHz FM
RS-15 22 Aug 08:39:51 08:48:07 25° 102° (ESE) 08:56:17 29.354 - 29.394 USB, Beacon 29.352 USB
UOSAT-12 22 Aug 08:43:39 08:48:03 44° 122° (ESE) 08:52:32 437.025 FM, 437.400 FM
Saudisat 1A 22 Aug 08:49:38 08:53:41 34° 36° (NE) 08:57:43 436.775 MHz
KITSAT 1 22 Aug 09:03:43 09:11:21 42° 33° (NNE) 09:18:55 435.175 FM
Hamsat 22 Aug 09:05:19 09:08:00 16° 301° (WNW) 09:10:42 145.90 MHz
SO-50 22 Aug 09:13:12 09:16:58 25° 331° (NNW) 09:20:49 436.795 FM
AO-7 22 Aug 09:53:22 09:56:34 13° 334° (NNW) 09:59:46 29.400 - 29.500 MHz
SO-67 22 Aug 10:08:25 10:09:57 13° 299° (WNW) 10:11:29 435.3500 MHz FM
UKube-1 22 Aug 10:08:28 10:12:00 24° 94° (E) 10:15:30 145.840 MHz, 145.915 MHz
HO-68 22 Aug 10:19:09 10:26:09 53° 101° (E) 10:33:06 435.675 MHz FM
UOSAT-12 22 Aug 10:23:56 10:28:18 38° 322° (NW) 10:32:45 437.025 FM, 437.400 FM
Oscar 11 22 Aug 10:24:32 10:28:03 23° 92° (E) 10:31:32 145.825 FM, Beacon 2401.500 USB
FUNcube-1 22 Aug 10:26:24 10:27:15 11° 86° (E) 10:28:07 145.950 - 145.970 MHz USB
Saudisat 1A 22 Aug 10:29:11 10:33:26 47° 237° (WSW) 10:37:39 436.775 MHz
RS-15 22 Aug 10:47:46 10:58:48 82° 126° (SE) 11:09:46 29.354 - 29.394 USB, Beacon 29.352 USB
SO-50 22 Aug 10:56:39 10:59:07 14° 356° (N) 11:01:38 436.795 FM
KITSAT 1 22 Aug 10:59:18 11:07:22 73° 238° (WSW) 11:15:23 435.175 FM
UKube-1 22 Aug 11:44:16 11:48:24 43° 292° (WNW) 11:52:30 145.840 MHz, 145.915 MHz
JAS-1B 22 Aug 11:44:39 11:49:17 15° 36° (NE) 11:53:41 435.800 - 435.900 CW/SSB
FUNcube-1 22 Aug 11:59:56 12:04:21 81° 104° (ESE) 12:08:52 145.950 - 145.970 MHz USB
Oscar 11 22 Aug 12:00:16 12:04:27 45° 291° (WNW) 12:08:36 145.825 FM, Beacon 2401.500 USB
UOSAT-12 22 Aug 12:06:44 12:09:44 16° 346° (NNW) 12:12:44 437.025 FM, 437.400 FM
HO-68 22 Aug 12:07:10 12:13:43 40° 302° (WNW) 12:20:14 435.675 MHz FM
Oscar 19 22 Aug 12:11:47 12:14:33 15° 52° (NE) 12:17:19 437.125 CW, 437.150 USB
